#timestamp,LO_Frequency,Hit,StdDev 
1656957615.8,286047000.1,N
1656957635.6,286047000.1,N
1656957655.4,286047002.4,N
1656957675.3,286047000.5,N
1656957695.1,286047001.2,N
1656957715.8,286047000.9,N
1656957735.7,286047001.0,N
1656957755.5,286047000.5,N
1656957775.4,286047000.3,N
1656957795.2,286047000.4,N
1656957815.0,286047000.0,N
1656957815.9,286047000.0,N
1656957835.8,286047000.4,N
1656957855.6,286047000.5,N
1656957875.4,286047000.5,N
1656957895.3,286047000.6,N
1656957915.1,286047000.1,N
1656957935.9,286047001.0,N
1656957955.7,286047000.7,N
1656957975.5,286046998.5,N
1656957995.4,286047000.8,N
1656958015.2,286047000.4,N
1656958035.0,286047000.0,N
1656958036.0,286047000.0,N
1656958055.8,286047003.4,Y
1656958075.6,286047003.5,P
1656958095.7,286047003.5,N
1656958115.5,286047004.0,N
1656958135.4,286047002.1,N
1656958155.2,286047002.5,N
1656958175.1,286047001.9,N
1656958176.0,286047001.9,N
1656958195.8,286047002.8,N
1656958215.6,286047001.4,N
1656958235.5,286047001.6,N
1656958255.3,286047002.7,N
1656958275.1,286047002.5,N
1656958295.9,286046999.7,N
1656958315.7,286047000.3,N
1656958335.6,286047000.2,N
1656958355.4,286047000.9,N
1656958375.2,286046998.1,N
1656958395.1,286047000.5,N
1656958396.0,286047000.5,N
1656958415.8,286047000.5,N
1656958435.6,286047001.0,N
1656958455.5,286047000.5,N
1656958475.3,286047000.9,N
1656958495.2,286046998.1,N
1656958515.9,286046998.6,N
1656958535.7,286046998.1,N
1656958555.6,286046998.2,N
1656958575.4,286046998.3,N
1656958595.2,286046998.2,N
1656958615.1,286046998.1,N
1656958616.0,286046998.1,N
1656958635.8,286047000.9,N
1656958655.7,286046998.7,N
1656958675.5,286047001.1,N
1656958695.3,286047001.0,N
1656958715.2,286047000.8,N
1656958735.0,286046998.4,N
1656958735.9,286046998.4,N
1656958755.8,286046999.3,N
1656958775.6,286046998.2,N
1656958795.4,286047001.1,N
1656958815.3,286046998.2,N
1656958835.1,286046998.3,N
1656958855.8,286046998.8,N
1656958875.7,286046999.3,N
1656958895.5,286046999.6,N
1656958915.4,286046997.0,N
1656958935.2,286046999.5,N
1656958955.0,286046997.3,N
1656958955.9,286046997.3,N
1656958975.8,286046997.1,N
1656958995.6,286046996.6,N
1656959015.4,286046996.7,N
1656959035.3,286046996.9,N
1656959055.1,286046997.1,N
1656959075.9,286046997.1,N
1656959095.7,286046999.2,N
1656959115.5,286046998.3,N
1656959135.4,286046999.5,N
1656959155.2,286046996.5,N
1656959175.0,286046998.4,N
1656959175.9,286046998.4,N
1656959195.8,286046998.8,N
1656959215.6,286046998.4,N
1656959235.5,286046998.2,N
1656959255.3,286046998.8,N
1656959275.1,286046999.4,N
1656959295.9,286046996.7,Y
1656959315.7,286047001.1,P
1656959335.5,286047001.1,N
1656959355.4,286047001.1,N
1656959375.2,286047000.7,N
1656959395.1,286047001.1,N
1656959396.0,286047001.1,N
1656959415.8,286047000.6,N
1656959435.6,286046998.6,N
1656959455.5,286046998.7,N
1656959475.3,286047000.2,N
1656959495.2,286046999.9,N
1656959515.9,286047001.0,N
1656959535.7,286046998.1,N
1656959555.6,286046998.5,N
1656959575.4,286046998.9,N
1656959595.2,286046998.2,N
1656959615.1,286046998.2,N
1656959616.0,286046998.2,N
1656959635.8,286047000.1,N
1656959655.7,286047001.0,N
1656959675.5,286047000.6,N
1656959695.3,286047000.0,N
1656959715.2,286047000.6,N
1656959735.0,286047000.6,N
1656959735.9,286047000.6,N
1656959755.7,286047000.4,N
1656959775.6,286047000.0,N
1656959795.4,286046999.9,N
1656959815.3,286047002.4,N
1656959835.1,286047002.1,N
1656959836.0,286047002.1,N
1656959855.8,286047002.4,N
1656959875.7,286047000.1,N
1656959895.5,286047000.1,N
1656959915.4,286046998.1,N
1656959935.2,286046998.9,N
1656959955.0,286046999.0,N
1656959955.9,286046999.0,N
1656959975.8,286046998.9,N
1656959995.6,286046998.8,N
1656960015.4,286047001.1,N
1656960035.3,286047000.5,N
1656960055.1,286046998.2,N
1656960075.9,286046999.9,N
1656960095.7,286047000.1,N
1656960115.5,286047000.0,N
1656960135.4,286047000.5,N
1656960155.2,286047000.9,N
1656960175.0,286046998.7,N
1656960175.9,286046998.7,N
1656960195.8,286046998.1,N
1656960215.6,286047000.3,N
1656960235.5,286047000.4,N
1656960255.3,286046999.6,N
1656960275.1,286046999.0,N
1656960295.9,286046998.7,N
1656960315.7,286046998.6,N
1656960335.5,286047000.9,N
1656960355.4,286047000.6,N
1656960375.2,286047000.6,N
1656960395.1,286047000.5,N
1656960396.0,286047000.5,N
1656960415.8,286047001.1,N
1656960435.6,286047001.0,N
1656960455.5,286047000.7,N
1656960475.3,286047000.9,N
1656960495.1,286047000.9,N
1656960515.9,286047001.2,N
1656960535.7,286046998.2,N
1656960555.6,286047000.7,N
1656960575.4,286046999.1,N
1656960595.2,286046998.9,N
1656960615.1,286046999.3,N
1656960616.0,286046999.3,N
1656960635.8,286046998.8,N
1656960655.7,286046996.5,Y
1656960675.5,286046998.8,P
1656960695.3,286046998.1,P
1656960715.2,286046998.4,N
1656960735.0,286047000.7,N
1656960735.9,286047000.7,N
1656960755.8,286046998.1,N
1656960775.6,286046998.7,N
1656960795.4,286047000.6,N
1656960815.3,286047000.9,N
1656960835.1,286046999.8,N
1656960855.9,286047000.5,N
1656960875.7,286047002.7,N
1656960895.5,286046999.8,N
1656960915.4,286047002.8,N
1656960935.2,286046999.9,N
1656960955.1,286047001.1,N
1656960956.0,286047001.1,N
1656960975.8,286046998.3,N
1656960995.6,286046998.4,N
1656961015.5,286046998.6,N
1656961035.3,286046998.2,N
1656961055.2,286047001.1,N
1656961075.0,286047000.9,N
1656961075.9,286047000.9,N
1656961095.8,286047000.4,N
1656961115.6,286047000.4,N
1656961135.5,286047001.0,N
1656961155.3,286047000.9,N
1656961175.1,286047000.9,N
1656961195.9,286047000.2,N
